EDT,Max TemperatureF,Mean TemperatureF,Min TemperatureF,Max Dew PointF,MeanDew PointF,Min DewpointF,Max Humidity, Mean Humidity, Min Humidity, Max Sea Level PressureIn, Mean Sea Level PressureIn, Min Sea Level PressureIn, Max VisibilityMiles, Mean VisibilityMiles, Min VisibilityMiles, Max Wind SpeedMPH, Mean Wind SpeedMPH, Max Gust SpeedMPH,PrecipitationIn, CloudCover, Events, WindDirDegrees
2013-3-1,30,27,23,29,20,17,91,77,69,30.10,30.03,29.94,10,10,10,14,9,16,0.00,8,,19
2013-3-2,26,22,18,18,16,14,86,72,63,30.08,30.07,30.04,10,10,10,10,6,,0.00,8,Snow,350
2013-3-3,30,24,17,16,14,12,85,68,49,30.06,30.03,29.99,10,10,10,14,5,18,0.00,4,Snow,307
2013-3-4,31,18,5,17,11,2,93,70,41,30.13,30.08,30.04,10,9,4,5,1,,0.00,0,,114
2013-3-5,32,28,25,27,20,14,93,71,58,30.06,29.89,29.76,10,9,1,20,10,24,0.00,8,Snow,77
2013-3-6,34,30,26,28,25,21,85,80,71,30.20,30.06,29.82,10,10,7,18,10,25,0.00,8,,355
2013-3-7,36,30,24,29,24,17,90,73,50,30.38,30.30,30.20,10,9,5,9,4,,0.00,7,,320
2013-3-8,40,27,14,25,18,12,94,70,40,30.48,30.42,30.37,10,8,1,5,0,,0.00,1,,132
2013-3-9,42,32,22,32,26,19,89,71,60,30.38,30.20,29.97,10,10,7,13,6,18,0.00,2,Rain,144
2013-3-10,54,48,41,40,35,32,77,62,52,29.97,29.86,29.73,10,10,7,13,8,20,0.00,4,Rain,160
2013-3-11,52,43,34,47,40,31,96,84,52,29.74,29.62,29.50,10,7,1,23,9,30,0.00,8,Rain,203
2013-3-12,34,32,30,31,28,24,94,85,73,29.91,29.83,29.71,10,7,2,18,14,25,0.00,8,Snow,245
2013-3-13,30,26,23,28,19,14,92,75,57,30.23,30.05,29.88,10,7,1,20,13,28,0.00,6,Snow,286
2013-3-14,40,30,19,23,18,13,82,63,40,30.26,30.20,30.09,10,10,10,13,7,17,0.00,0,,262
2013-3-15,44,37,30,37,31,23,94,83,63,30.09,29.91,29.79,10,6,2,12,7,17,0.00,6,Rain,268
2013-3-16,35,32,28,34,28,23,95,87,72,30.04,29.84,29.68,10,8,2,14,7,20,0.00,8,Rain-Snow,35
2013-3-17,33,30,26,22,18,15,80,66,53,30.22,30.14,30.04,10,10,10,16,9,21,0.00,4,,63
2013-3-18,33,29,25,32,27,19,96,88,73,30.08,29.75,29.55,10,6,1,16,12,25,0.00,6,Rain-Snow,112
2013-3-19,32,26,20,29,16,14,87,68,53,29.96,29.81,29.65,10,8,2,25,19,38,0.00,6,Snow,260
2013-3-20,28,20,13,17,13,8,90,68,47,29.96,29.94,29.91,10,8,1,20,14,29,0.00,6,Snow,278
2013-3-21,29,20,12,24,17,10,90,81,67,29.97,29.92,29.89,10,7,2,18,9,25,0.00,7,Snow,274
2013-3-22,39,32,24,22,20,16,87,65,48,30.02,29.98,29.96,10,10,7,12,8,17,0.00,5,Snow,291
2013-3-23,37,28,20,24,21,18,92,75,49,30.09,30.04,30.00,10,10,7,10,2,,0.00,3,,14
2013-3-24,36,30,25,25,22,19,85,71,56,29.99,29.80,29.60,10,10,10,25,10,31,0.00,5,,60
2013-3-25,36,32,29,28,24,22,87,71,60,29.94,29.69,29.55,10,9,2,20,13,28,0.00,8,Snow,11
2013-3-26,41,36,31,30,27,24,87,76,55,30.15,30.05,29.94,10,10,5,16,8,23,0.00,8,Snow,303
2013-3-27,45,36,28,29,24,18,90,64,36,30.25,30.20,30.15,10,10,10,20,9,25,0.00,4,,290
2013-3-28,50,38,25,28,23,20,87,59,31,30.29,30.26,30.23,10,10,10,12,6,17,0.00,1,,283
2013-3-29,51,37,23,26,20,16,93,58,25,30.29,30.25,30.19,10,10,7,12,2,16,0.00,0,,296
2013-3-30,54,38,23,31,23,18,92,57,27,30.22,30.10,29.91,10,10,7,13,3,21,0.00,0,,206
2013-3-31,58,48,37,42,33,26,93,62,30,29.91,29.73,29.65,10,9,2,24,8,33,0.00,5,Rain,255